Terminal Aerodrome Forecast
Issued by NWS Chicago, IL

Home | Current Version | Previous Version | Text Only | Print | Product List | Glossary On
Versions: 1 2 3 4 5 6 7 8 9 10 11 12 13 14 15 16 17 18 19 20 21 22 23 24 25 26 27 28 29 30 31
520
FTUS43 KLOT 292332
TAFRFD
TAF
KRFD 292332Z 3000/3024 07015G23KT P6SM VCSH SCT050 BKN080
      TEMPO 3000/3001 5SM -SHRA OVC050
     FM300500 07013G22KT 4SM -SHRA SCT020 OVC040
     FM300800 08014G23KT 3SM -SHRA BR BKN015 OVC030 PROB30 3009/3012
      2SM -TSRA BKN015 OVC030CB
     FM301200 08018G25KT 2SM -SHRA BR BKN006 OVC010
     FM302000 06011G18KT 3SM -SHRA BR OVC007=

USA.gov is the U.S. government's official web portal to all federal, state and local government web resources and services.